Погода в Бендер-Махшехре

Иран     30°33′42″N   49°11′16″E
В апреле 2022 года жителям России запретили посещать сайт meteo.paraplan.net по решению Генеральной прокуратуры. Аудитория сайта уменьшилась в 10 раз. Владельцы сайта не видят смысла в поддержке погодного сервера в таких условиях. Сайт будет закрыт в октябре.
темп.,
°C
ветер,
м/с
пор.,
м/с
влажн.,
%
обл.,
%
осадки,
мм/ч
давл.,
гПа
погр.,
м
25 сентября, вс
вс2500:30+33сз711200 0.0 1004205
03:30+31сз712250 0.0 1003210
06:30+29сз69280 0.0 1004148
09:30+35сз67210 0.0 1005371
12:30+40зсз56150 0.0 1003741
15:30+42зсз67120 0.0 10011129
18:30+38зсз56150 0.0 100268
21:30+35сз1116200 0.0 1004347
26 сентября, пн
пн2600:30+32сз914260 0.0 1004366
03:30+30сз913290 0.0 1004369
06:30+28сз712260 0.0 1006325
09:30+32сз78220 0.0 1007605
12:30+37сз78160 0.0 1006861
15:30+39сз77140 0.0 10051073
18:30+36зсз69160 0.0 1005121
21:30+33зсз610180 0.0 1006147
27 сентября, вт
вт2700:30+31сз58210 0.0 1006106
03:30+29сз59220 0.0 1006138
06:30+28сз57220 0.0 1008129
09:30+33сз57170 0.0 1009481
12:30+37сз56140 0.0 10071131
15:30+38зсз56130 0.0 10061376
18:30+35сз56160 0.0 100580
21:30+33зсз68170 0.0 100699
28 сентября, ср
ср2800:30+31сз69160 0.0 1006119
03:30+29ссз57150 0.0 100679
06:30+28сз56150 0.0 100782
09:30+33зсз56130 0.0 1008400
12:30+37зсз66110 0.0 10061380
15:30+37зсз55100 0.0 10041640
18:30+34зсз56130 0.0 100477
21:30+32зсз45160 0.0 100548
29 сентября, чт
чт2900:30+30сз45180 0.0 100458
03:30+28сз46190 0.0 100482
06:30+27сз45190 0.0 100580
09:30+33сз56150 0.0 1006429
12:30+37з45130 0.0 10041145
15:30+38з44120 0.0 10031386
18:30+35сз33150 0.0 100333
21:30+32зсз22190 0.0 100416